| time (UTC) | temp F | wind direction | speed knots | gust knots | rain 1hr in | rain 24hr in | rain mn in | humidity % | barometer mb |
| 20260507112727 | 49 | 216 | 5.2 | 5.2 | 0.00 | 0.00 | 0.00 | 49 | 1016.6 |
| 20260507110727 | 49 | 195 | 4.3 | 5.2 | 0.00 | 0.00 | 0.00 | 44 | 1016.5 |
| 20260507104726 | 50 | 158 | 6.1 | 7.0 | 0.00 | 0.00 | 0.00 | 47 | 1016.4 |
| 20260507102727 | 51 | 150 | 5.2 | 6.1 | 0.00 | 0.00 | 0.00 | 46 | 1016.3 |
| 20260507100727 | 48 | 135 | 6.1 | 7.8 | 0.00 | 0.00 | 0.00 | 48 | 1016.2 |
| 20260507094727 | 46 | 126 | 8.7 | 10.4 | 0.00 | 0.00 | 0.00 | 55 | 1016.1 |
| 20260507090727 | 47 | 110 | 11.3 | 12.2 | 0.00 | 0.00 | 0.00 | 57 | 1016.1 |
| 20260507084727 | 47 | 107 | 12.2 | 13.0 | 0.00 | 0.00 | 0.00 | 58 | 1016.0 |
| 20260507082727 | 46 | 104 | 11.3 | 12.2 | 0.00 | 0.00 | 0.00 | 58 | 1016.1 |
| 20260507080726 | 46 | 94 | 12.2 | 14.8 | 0.00 | 0.00 | 0.00 | 56 | 1016.1 |
| 20260507074727 | 47 | 89 | 14.8 | 15.6 | 0.00 | 0.00 | 0.00 | 53 | 1016.1 |
| 20260507072727 | 46 | 79 | 12.2 | 13.0 | 0.00 | 0.00 | 0.00 | 54 | 1016.1 |
| 20260507070726 | 47 | 81 | 13.0 | 13.9 | 0.00 | 0.00 | 0.00 | 53 | 1016.1 |
| 20260507064727 | 47 | 76 | 12.2 | 13.9 | 0.00 | 0.00 | 0.00 | 51 | 1016.0 |
| 20260507062726 | 47 | 66 | 11.3 | 13.0 | 0.00 | 0.00 | 0.00 | 53 | 1015.9 |
| 20260507060726 | 45 | 69 | 11.3 | 12.2 | 0.00 | 0.00 | 0.00 | 55 | 1015.9 |
| 20260507054727 | 44 | 55 | 9.6 | 11.3 | 0.00 | 0.00 | 0.00 | 58 | 1015.7 |
| 20260507052726 | 44 | 58 | 10.4 | 11.3 | 0.00 | 0.00 | 0.00 | 57 | 1015.7 |
| 20260507050726 | 43 | 53 | 9.6 | 11.3 | 0.00 | 0.00 | 0.00 | 58 | 1015.6 |
| 20260507042725 | 41 | 42 | 9.6 | 11.3 | 0.00 | 0.00 | 0.00 | 58 | 1015.5 |
| 20260507040727 | 40 | 48 | 9.6 | 11.3 | 0.00 | 0.00 | 0.00 | 60 | 1015.5 |
| 20260507034727 | 39 | 53 | 10.4 | 12.2 | 0.00 | 0.00 | 0.00 | 64 | 1015.4 |
| 20260507032727 | 39 | 56 | 11.3 | 12.2 | 0.00 | 0.00 | 0.00 | 64 | 1015.2 |
| 20260507030727 | 38 | 53 | 11.3 | 12.2 | 0.00 | 0.00 | 0.00 | 64 | 1015.2 |
| 20260507024726 | 38 | 51 | 11.3 | 13.0 | 0.00 | 0.00 | 0.00 | 66 | 1015.2 |
| 20260507022726 | 38 | 56 | 11.3 | 13.0 | 0.00 | 0.00 | 0.00 | 69 | 1015.1 |
| 20260507020725 | 38 | 51 | 11.3 | 12.2 | 0.00 | 0.00 | 0.00 | 66 | 1015.1 |
| 20260507014726 | 38 | 51 | 11.3 | 13.0 | 0.00 | 0.00 | 0.00 | 69 | 1015.1 |
| 20260507012726 | 38 | 58 | 11.3 | 12.2 | 0.00 | 0.00 | 0.00 | 70 | 1015.1 |
| 20260507010725 | 38 | 58 | 11.3 | 13.0 | 0.00 | 0.00 | 0.00 | 66 | 1014.9 |
| 20260507004725 | 39 | 58 | 11.3 | 13.0 | 0.00 | 0.00 | 0.00 | 62 | 1014.9 |
| 20260507002726 | 39 | 50 | 12.2 | 13.0 | 0.00 | 0.00 | 0.00 | 63 | 1014.6 |
| 20260507000725 | 39 | 45 | 12.2 | 13.0 | 0.00 | 0.00 | 0.00 | 63 | 1014.6 |
| 20260506234726 | 39 | 49 | 12.2 | 13.0 | 0.00 | 0.00 | 0.00 | 64 | 1014.6 |
| 20260506232725 | 38 | 32 | 11.3 | 13.0 | 0.00 | 0.00 | 0.00 | 70 | 1014.6 |
| 20260506230727 | 39 | 29 | 11.3 | 13.0 | 0.00 | 0.00 | 0.00 | 69 | 1014.6 |
| 20260506224724 | 39 | 21 | 12.2 | 13.9 | 0.00 | 0.00 | 0.00 | 67 | 1014.7 |
| 20260506222725 | 40 | 8 | 11.3 | 14.8 | 0.00 | 0.00 | 0.00 | 63 | 1014.6 |
| 20260506220725 | 40 | 4 | 10.4 | 13.0 | 0.00 | 0.00 | 0.00 | 70 | 1014.6 |
| 20260506214725 | 40 | 356 | 10.4 | 12.2 | 0.00 | 0.00 | 0.00 | 66 | 1014.6 |
| 20260506212726 | 40 | 349 | 9.6 | 11.3 | 0.00 | 0.00 | 0.00 | 68 | 1014.5 |
| 20260506210725 | 41 | 346 | 9.6 | 11.3 | 0.00 | 0.00 | 0.00 | 71 | 1014.5 |
| 20260506204725 | 41 | 342 | 9.6 | 11.3 | 0.00 | 0.00 | 0.00 | 75 | 1014.5 |
| 20260506202725 | 42 | 331 | 9.6 | 11.3 | 0.00 | 0.00 | 0.00 | 69 | 1014.5 |
| 20260506200725 | 42 | 323 | 8.7 | 9.6 | 0.00 | 0.00 | 0.00 | 69 | 1014.6 |
| 20260506194725 | 42 | 316 | 8.7 | 9.6 | 0.00 | 0.00 | 0.00 | 68 | 1014.7 |
| 20260506192724 | 43 | 311 | 9.6 | 10.4 | 0.00 | 0.00 | 0.00 | 64 | 1014.7 |
| 20260506190724 | 43 | 310 | 9.6 | 10.4 | 0.00 | 0.00 | 0.00 | 60 | 1014.7 |
| 20260506184724 | 44 | 314 | 9.6 | 11.3 | 0.00 | 0.00 | 0.00 | 61 | 1014.6 |
| 20260506182725 | 44 | 305 | 9.6 | 11.3 | 0.00 | 0.00 | 0.00 | 60 | 1014.5 |
| 20260506180725 | 44 | 299 | 11.3 | 13.0 | 0.00 | 0.00 | 0.00 | 65 | 1014.5 |
| 20260506174725 | 45 | 291 | 13.0 | 13.9 | 0.00 | 0.00 | 0.00 | 64 | 1014.5 |
| 20260506172723 | 45 | 287 | 12.2 | 13.9 | 0.00 | 0.00 | 0.00 | 62 | 1014.6 |
| 20260506170724 | 46 | 287 | 13.9 | 14.8 | 0.00 | 0.00 | 0.00 | 67 | 1014.6 |
| 20260506164723 | 45 | 281 | 13.9 | 14.8 | 0.00 | 0.00 | 0.00 | 70 | 1014.6 |
| 20260506162724 | 45 | 283 | 13.9 | 14.8 | 0.00 | 0.00 | 0.00 | 69 | 1014.6 |
| 20260506160724 | 45 | 284 | 13.9 | 14.8 | 0.00 | 0.00 | 0.00 | 67 | 1014.6 |
| 20260506154724 | 46 | 282 | 14.8 | 16.5 | 0.00 | 0.00 | 0.00 | 66 | 1014.6 |
| 20260506152724 | 46 | 282 | 14.8 | 16.5 | 0.00 | 0.00 | 0.00 | 65 | 1014.7 |
| 20260506150723 | 46 | 283 | 16.5 | 18.2 | 0.00 | 0.00 | 0.00 | 60 | 1014.7 |
| 20260506144723 | 46 | 281 | 16.5 | 18.2 | 0.00 | 0.00 | 0.00 | 58 | 1014.9 |
| 20260506142723 | 46 | 277 | 16.5 | 18.2 | 0.00 | 0.00 | 0.00 | 57 | 1015.0 |
| 20260506140722 | 46 | 268 | 17.4 | 18.2 | 0.00 | 0.00 | 0.00 | 62 | 1015.0 |
| 20260506134723 | 46 | 265 | 17.4 | 19.1 | 0.00 | 0.00 | 0.00 | 60 | 1015.1 |
| 20260506132723 | 47 | 260 | 17.4 | 19.1 | 0.00 | 0.00 | 0.00 | 63 | 1015.2 |
| 20260506130722 | 47 | 257 | 16.5 | 18.2 | 0.00 | 0.00 | 0.00 | 62 | 1015.2 |
| 20260506124723 | 47 | 254 | 16.5 | 17.4 | 0.00 | 0.00 | 0.00 | 63 | 1015.1 |
| 20260506122723 | 47 | 253 | 16.5 | 17.4 | 0.00 | 0.00 | 0.00 | 69 | 1015.2 |
| 20260506120723 | 47 | 251 | 15.6 | 16.5 | 0.00 | 0.00 | 0.00 | 68 | 1015.2 |
| 20260506114723 | 47 | 253 | 16.5 | 17.4 | 0.00 | 0.00 | 0.00 | 69 | 1015.2 |